#timestamp,LO_Frequency,Hit,StdDev 
1652439615.6,286046999.1,N
1652439635.4,286047000.0,N
1652439655.2,286047004.1,N
1652439675.1,286047000.9,N
1652439676.0,286047000.9,N
1652439695.8,286047000.8,N
1652439715.6,286047003.2,N
1652439735.5,286047002.9,N
1652439755.3,286047003.6,N
1652439775.1,286046998.1,N
1652439795.9,286046998.2,N
1652439815.7,286046997.7,N
1652439835.5,286046995.7,N
1652439855.4,286046992.7,N
1652439875.2,286046991.5,N
1652439895.0,286046991.7,N
1652439895.9,286046991.7,N
1652439915.8,286046992.3,N
1652439935.6,286046991.4,N
1652439955.4,286046994.3,N
1652439975.3,286046994.3,N
1652439995.1,286046994.4,N
1652439996.0,286046994.4,N
1652440015.8,286046991.4,N
1652440035.7,286046993.2,N
1652440055.5,286046991.5,N
1652440075.3,286046992.7,N
1652440095.2,286046995.8,N
1652440115.9,286047001.2,N
1652440135.7,286046999.2,N
1652440155.6,286046999.3,N
1652440175.4,286046998.7,N
1652440195.2,286046999.7,N
1652440215.1,286047000.1,N
1652440216.0,286047000.1,N
1652440235.8,286047000.4,N
1652440255.6,286046997.5,N
1652440275.5,286046992.0,N
1652440295.3,286046993.1,N
1652440315.1,286046995.4,N
1652440335.9,286046996.7,N
1652440355.7,286046995.2,N
1652440375.5,286046997.6,N
1652440395.4,286046995.9,N
1652440415.2,286046994.2,N
1652440435.0,286046991.8,N
1652440435.9,286046991.8,N
1652440455.8,286046992.9,N
1652440475.6,286046992.8,N
1652440495.4,286046996.1,N
1652440515.3,286046996.2,N
1652440535.1,286046995.6,N
1652440536.0,286046995.6,N
1652440555.8,286046995.4,N
1652440575.7,286046996.9,N
1652440595.5,286046998.1,N
1652440615.3,286047003.2,N
1652440635.2,286047004.4,N
1652440655.9,286047004.3,N
1652440675.7,286047002.6,N
1652440695.6,286047003.5,N
1652440715.4,286047004.4,N
1652440735.2,286047001.2,N
1652440755.1,286046999.6,N
1652440756.0,286046999.6,N
1652440775.8,286046993.4,N
1652440795.6,286046999.5,N
1652440815.5,286046998.4,N
1652440835.3,286047001.2,N
1652440855.1,286047004.3,N
1652440875.9,286047002.8,N
1652440895.7,286046998.2,N
1652440915.5,286046999.3,N
1652440935.4,286046998.0,N
1652440955.2,286046989.5,N
1652440975.0,286046991.0,N
1652440975.9,286046991.0,N
1652440995.8,286046991.7,N
1652441015.6,286046994.4,N
1652441035.4,286046995.8,N
1652441055.3,286046999.3,N
1652441075.1,286047001.1,N
1652441076.0,286047001.1,N
1652441095.8,286046998.1,N
1652441115.7,286046996.6,N
1652441135.5,286046994.9,N
1652441155.3,286046993.4,N
1652441175.2,286046994.5,N
1652441195.9,286046993.9,N
1652441215.7,286046994.1,N
1652441235.6,286046994.5,N
1652441255.4,286046988.5,N
1652441275.2,286046992.1,N
1652441295.1,286046992.6,N
1652441296.0,286046992.6,N
1652441315.8,286046986.3,Y
1652441335.6,286046993.0,P
1652441355.5,286046987.0,P
1652441375.3,286046988.6,P
1652441395.1,286046991.1,N
1652441415.9,286046994.2,N
1652441435.7,286046993.5,N
1652441455.5,286046992.1,N
1652441475.4,286046996.8,N
1652441495.2,286046999.1,N
1652441515.0,286046994.9,N
1652441515.9,286046994.9,N
1652441535.8,286046996.9,N
1652441555.6,286047000.2,N
1652441575.4,286046999.3,N
1652441595.3,286046998.9,N
1652441615.1,286046997.8,N
1652441616.0,286046997.8,N
1652441635.8,286046994.0,N
1652441655.7,286046995.5,N
1652441675.5,286046999.2,N
1652441695.3,286046996.5,N
1652441715.2,286046992.2,N
1652441735.9,286046991.9,N
1652441755.7,286046992.5,N
1652441775.6,286046994.5,N
1652441795.4,286046994.1,N
1652441815.2,286046993.3,N
1652441835.1,286046999.0,N
1652441836.0,286046999.0,N
1652441855.8,286046998.7,N
1652441875.6,286046998.8,N
1652441895.5,286046995.0,N
1652441915.3,286046995.4,N
1652441935.1,286046999.2,N
1652441955.9,286046997.0,N
1652441975.7,286046997.5,N
1652441995.5,286047002.3,N
1652442015.4,286047006.0,N
1652442035.2,286047002.8,N
1652442055.0,286047002.5,N
1652442055.9,286047002.5,N
1652442075.8,286046996.5,N
1652442095.6,286047002.1,N
1652442115.4,286046999.3,N
1652442135.2,286046995.8,N
1652442155.1,286046994.1,N
1652442156.0,286046994.1,N
1652442175.8,286046991.0,N
1652442195.7,286046988.7,Y
1652442215.5,286046990.7,P
1652442235.3,286046988.9,P
1652442255.2,286046991.3,N
1652442275.9,286046995.1,N
1652442295.7,286046998.0,N
1652442315.6,286046991.8,N
1652442335.4,286046997.3,N
1652442355.2,286047001.0,N
1652442375.0,286047000.9,N
1652442376.0,286047000.9,N
1652442395.8,286047000.4,N
1652442415.6,286046998.5,N
1652442435.5,286046995.1,N
1652442455.3,286046999.0,N
1652442475.1,286047001.5,N
1652442495.9,286047004.1,N
1652442515.7,286047003.8,N
1652442535.5,286047004.4,N
1652442555.3,286047003.3,N
1652442575.2,286047005.8,N
1652442595.0,286047005.2,N
1652442595.9,286047005.2,N
1652442615.8,286047008.7,N
1652442635.6,286047008.8,N
1652442655.4,286047009.0,N
1652442675.2,286047007.9,N
1652442695.1,286047009.9,N
1652442696.0,286047009.9,N
1652442715.8,286047008.7,N
1652442735.7,286047001.7,N
1652442755.5,286046998.2,N
1652442775.3,286047001.0,N
1652442795.1,286046999.3,N
1652442815.9,286046997.8,N
1652442835.7,286046998.9,N
1652442855.5,286046997.5,N
1652442875.4,286047000.4,N
1652442895.2,286046999.9,N
1652442915.0,286046998.7,N
1652442916.0,286046998.7,N
1652442935.8,286047000.3,N
1652442955.6,286047000.3,N
1652442975.4,286047002.4,N
1652442995.3,286047004.0,N
1652443015.1,286047001.4,N
1652443035.8,286046998.9,N
1652443055.7,286046996.9,N
1652443075.5,286047004.4,N
1652443095.3,286046998.4,N
1652443115.2,286046998.2,N
1652443135.0,286047001.0,N
1652443135.9,286047001.0,N
1652443155.7,286047004.2,N
1652443175.6,286047003.3,N
1652443195.4,286047003.8,N
